CZ-3A R/B, 43492

Orbit data source: Space-Track

CZ-3A R/B, 43492 is space debris in HEO originally from a launch on Tue, 05 Jun 2018 UTC launched from the Xichang Space Center, China (XSC). Debris objects in space refer to the collection of defunct objects orbiting the Earth. Examples of debris include non-operational satellites, rocket bodies, and fragments generated from explosions, collisions, or faulty payload assembly.

Loading next visibility...
Identifier
43492, 2018-050B
Orbit
HEO
Country
Flag of CNCN / PRC
Related business
Manufacturer
CALT
Mission
Spacecraft
Bus & Motor
CZ-3A STAGE 3, Unknown motor
Mass
~2,800 kg wet, ~2,800 kg dry
Launch date (UTC)
2018-06-05 (7 years ago)
Launch vehicle
Unknown
Launch site
Xichang Space Center, China (XSC)
Object type
Payload
Rocket body
Debris
Shape & HBR
Cyl + 1 Nozzle, 6.2 m
Radar Cross Section
32.704 m², Large (>1 m²)

Expand to show TLE details & history
Last TLE update: 1 day ago

TLE from 1 day ago
0 CZ-3A R/B
1 43492U 18050B   25293.75613960  .00006094  00000-0  29210-2 0  9999
2 43492  23.8764 170.9578 7263871  83.2313 347.1890  2.28836610 60661
Epoch: 2025-10-20T18:08Z
TLE epoch observation values (Epoch: 2025-10-20T18:08:50.461Z)
Latitude
-0.00004°
Longitude
-130.54467°
Altitude
4,174.675 km
Speed
7.691 km/s
True Right ascension
11h 24m 28s
True Declination
0° 00' 00"
Sunlit
Object was in daylight at epoch
Visualization orbit readout
Latitude
Unknown
Longitude
Unknown
Altitude
Unknown
Speed
Unknown
Apparent Right ascension
Unknown
Apparent Declination
Unknown
Sunlit
N/A
Visualization observer readout
Local Sidereal Time
18:41:42
Azimuth
Unknown
Elevation
Unknown
Doppler factor
Unknown
Orbital elements
Apogee altitude
35,623.388 km
Perigee altitude
278.631 km
Semi-major axis
24,329.147 km
Eccentricity
0.72639
Inclination
23.8764°
RAAN
170.9578°
Arg. of periapsis
83.2313°
True anomaly
276.68381°
Mean anomaly
347.189°
Eccentric anomaly
320.99396°
Mean motion
0.57194 °/min
Orbital period
629.43 mins
BSTAR
0.002921
Loading maneuver chart data...
Computing Atmospheric mass density...
Loading historical data...
Loading historical data...
Loading historical data...
Loading historical data...
Loading historical data...
Loading historical data...
Loading historical data...
Other satellites on launch #50 in the year 2018 (2018-06-05 UTC)

Documentation

Showing up to 5 results
|